Date,TemperatureHighF,TemperatureAvgF,TemperatureLowF,DewpointHighF,DewpointAvgF,DewpointLowF,HumidityHigh,HumidityAvg,HumidityLow,PressureMaxIn,PressureMinIn,WindSpeedMaxMPH,WindSpeedAvgMPH,GustSpeedMaxMPH,PrecipitationSumIn
2012-1-2,83.3,71.6,54.5,68.6,61.0,43.3,92,71,53,30.42,30.27,17,5,17,0.00
2012-1-3,60.4,51.3,41.7,43.0,24.2,8.3,66,40,18,30.59,30.48,23,7,23,0.00
2012-1-4,60.8,56.2,49.1,44.1,40.6,35.5,60,57,55,30.62,30.60,11,5,11,0.00
2012-1-5,74.8,62.1,48.0,47.2,32.3,6.6,94,44,11,30.54,30.41,12,3,12,0.00
2012-1-7,81.9,70.4,-7.8,61.4,55.2,-22.8,99,63,35,30.43,30.32,97,3,97,24.19
2012-1-9,60.6,60.4,60.1,59.8,59.7,59.4,100,99,97,30.33,30.30,0,0,0,0.00
2012-1-10,82.4,76.7,66.6,71.9,62.7,59.3,85,64,52,30.34,30.07,13,5,13,0.07
2012-1-11,76.8,73.1,68.7,70.1,68.3,66.1,100,86,74,30.03,29.89,19,4,19,0.00
2012-1-13,64.2,62.7,61.0,59.9,57.4,56.3,88,83,77,30.23,30.19,2,0,2,0.01
2012-1-15,81.3,67.5,56.7,45.7,37.2,20.1,65,39,18,30.51,30.40,14,4,14,0.00
2012-1-17,75.2,66.7,61.5,61.5,60.3,59.0,93,81,62,30.28,30.25,5,1,5,0.00
2012-1-18,87.8,77.1,68.9,62.9,60.6,56.8,81,60,40,30.19,30.07,11,3,11,0.00
2012-1-20,79.5,73.9,68.0,62.8,57.9,55.5,72,59,49,30.27,30.20,15,6,15,0.00
2012-1-26,74.8,74.4,73.9,70.5,69.9,69.3,87,86,85,30.10,30.07,9,3,9,0.00
2012-1-27,88.5,76.1,73.4,70.5,68.7,65.3,86,80,49,30.04,29.73,11,2,11,0.00
2012-1-28,93.0,82.9,71.1,69.6,67.5,64.2,91,62,44,30.23,30.12,9,2,9,0.00
2012-1-31,72.5,72.1,71.2,65.7,65.0,64.6,82,79,77,30.32,30.30,9,4,9,0.00
2012-2-1,75.7,75.2,74.7,67.9,67.6,67.2,78,78,77,30.21,30.20,9,8,9,0.00
2012-2-3,72.7,72.4,72.0,68.8,68.0,67.3,90,86,84,30.22,30.21,15,7,15,0.09
2012-2-6,78.1,75.5,74.7,71.0,70.2,68.9,87,84,74,30.09,30.05,10,5,10,0.47
2012-2-7,87.8,77.1,69.6,74.3,71.8,69.3,100,86,58,30.09,29.99,9,2,9,0.44
2012-2-12,59.4,57.5,55.2,42.1,41.1,39.9,59,55,52,30.32,30.29,15,7,15,0.00
2012-2-21,80.2,73.8,67.6,61.0,59.7,57.6,77,63,51,30.29,30.13,14,6,15,0.00
2012-2-23,91.8,82.6,70.9,71.4,66.6,63.2,92,61,43,30.08,29.97,13,5,13,0.00
2012-2-25,91.4,77.7,71.6,74.0,68.4,65.7,83,74,52,30.25,30.13,14,4,15,0.00
2012-2-29,86.5,78.5,73.8,72.0,70.7,69.8,90,78,62,30.09,30.00,16,5,16,0.00
2012-3-1,89.4,78.3,70.3,73.6,70.4,67.8,97,79,53,30.03,29.91,15,3,15,0.00
2012-3-2,89.4,77.0,66.4,76.6,69.3,65.8,99,80,53,29.96,29.88,17,3,17,0.00
2012-3-3,89.2,79.0,72.0,73.9,71.5,69.1,93,79,56,29.89,29.76,17,4,17,0.00
2012-3-4,86.5,70.7,55.9,75.2,60.5,38.5,96,72,36,30.09,29.74,23,8,23,0.05
2012-3-5,82.2,64.8,52.5,57.6,48.1,37.8,88,56,37,30.24,30.09,15,4,15,0.00
2012-3-6,77.9,69.1,54.7,64.0,58.3,52.9,98,70,49,30.27,30.17,26,9,26,0.04
2012-3-7,78.3,72.7,68.7,70.0,66.5,62.4,99,81,70,30.24,29.78,27,11,27,0.39
2012-3-8,79.0,73.9,68.5,71.4,69.6,68.2,99,87,74,30.16,30.05,26,10,26,0.66
2012-3-9,84.6,76.1,71.8,72.0,70.0,68.7,96,82,63,30.10,29.99,18,7,18,0.00
2012-3-10,87.3,76.1,68.0,73.4,69.0,65.3,99,80,51,30.09,29.97,15,4,15,0.00
2012-3-11,81.3,75.7,72.1,69.3,67.5,65.5,86,76,63,30.16,30.05,24,10,24,0.00
2012-3-12,79.9,73.8,70.0,67.8,64.7,60.3,88,74,60,30.18,30.07,20,8,20,0.00
2012-3-13,81.9,74.0,66.7,66.6,63.8,61.5,85,71,57,30.13,30.05,17,5,17,0.00
2012-3-14,85.8,74.3,64.9,74.8,65.3,61.3,99,76,48,30.11,30.01,20,4,20,0.02
2012-3-15,79.0,73.2,67.3,72.0,68.4,65.5,99,85,74,30.12,30.01,21,6,21,0.40
2012-3-16,83.5,74.4,69.3,72.0,67.5,62.1,98,80,50,30.11,30.01,16,5,16,0.11
2012-3-17,85.8,74.9,63.5,70.5,64.8,61.9,99,73,48,30.12,30.01,15,3,15,0.00
2012-3-18,82.0,73.5,61.9,71.2,65.3,61.3,99,77,55,30.12,30.02,17,5,17,0.00
2012-3-19,82.6,75.7,71.2,68.5,64.7,61.0,88,70,50,30.06,29.96,18,6,18,0.01
2012-3-20,81.5,75.8,72.3,68.7,66.1,63.9,84,72,59,30.00,29.91,21,8,21,0.00
2012-3-21,81.7,76.8,73.8,70.7,69.5,57.7,87,78,65,30.04,29.93,22,11,22,0.00
2012-3-22,83.3,77.5,73.6,70.9,68.8,64.0,88,76,56,30.07,29.97,18,9,18,0.00
2012-3-23,85.1,77.3,69.8,72.0,66.2,62.6,89,70,49,30.02,29.92,15,5,15,0.00
2012-3-24,89.4,77.3,65.8,75.0,66.1,64.0,99,70,48,29.96,29.83,14,3,14,0.00
2012-3-25,88.3,77.4,68.4,72.0,67.6,64.9,96,74,47,29.88,29.71,18,5,18,0.00
2012-3-26,91.2,75.3,63.9,65.8,58.7,43.7,86,61,21,29.90,29.79,13,4,13,0.00
2012-3-27,85.8,74.2,65.3,72.1,65.0,60.1,99,75,51,30.06,29.87,18,5,18,0.02
2012-3-28,81.9,74.6,68.0,69.6,64.2,59.4,99,71,55,30.07,29.97,19,8,19,0.04
2012-3-29,85.5,74.9,63.9,71.4,63.3,26.4,98,69,48,29.99,29.88,15,4,15,0.01
2012-3-30,85.8,74.1,60.8,72.1,62.6,59.5,99,70,47,29.99,29.89,16,4,16,0.00
2012-3-31,92.8,77.3,67.3,73.2,68.6,62.6,97,76,41,29.93,29.78,24,3,24,0.15
2012-4-1,95.0,79.1,70.0,72.0,68.3,60.3,99,74,33,29.86,29.74,14,3,14,0.00
2012-4-2,96.6,79.8,67.1,72.9,67.0,55.8,99,70,27,29.82,29.73,10,2,10,0.00
2012-4-3,93.0,79.5,65.7,71.8,67.3,59.2,97,69,38,29.88,29.80,15,4,15,0.00
2012-4-4,91.9,79.9,69.3,78.4,69.8,57.0,99,75,39,30.02,29.73,15,3,15,0.00
2012-4-5,93.2,79.1,69.3,72.9,68.6,60.8,95,73,36,29.79,29.63,20,5,20,0.01
2012-4-6,90.3,79.1,71.6,76.5,71.4,63.7,99,79,48,29.80,29.64,21,5,21,0.18
2012-4-7,84.6,74.1,66.7,70.3,65.9,61.5,98,77,52,30.00,29.79,17,4,17,0.01
2012-4-8,83.7,74.1,66.7,64.8,60.4,57.6,79,63,46,30.04,29.98,18,5,18,0.00
2012-4-9,89.4,73.6,61.9,67.5,62.1,59.0,98,70,42,30.00,29.90,16,4,16,0.00
2012-4-10,88.2,75.3,63.3,71.8,61.8,57.0,99,66,36,29.99,29.89,16,3,16,0.00
2012-4-11,93.6,77.2,64.4,68.9,63.8,58.3,95,67,31,29.97,29.84,11,2,12,0.00
2012-4-12,93.6,78.0,65.3,67.8,63.4,55.0,92,64,30,29.94,29.86,13,3,13,0.00
2012-4-13,83.3,74.3,68.4,73.9,68.6,64.4,99,83,65,30.02,29.89,17,4,17,0.61
2012-4-14,80.1,73.8,68.2,70.3,66.7,62.4,99,80,60,30.12,29.97,28,10,28,1.25
2012-4-15,81.9,75.7,70.7,66.6,62.8,59.7,75,65,50,30.11,30.03,21,10,23,0.00
2012-4-16,81.7,76.2,73.0,66.2,62.7,56.8,72,63,50,30.10,30.00,20,10,20,0.00
2012-4-17,83.8,76.1,64.8,66.2,62.3,57.7,88,64,44,30.07,29.96,17,6,17,0.00
2012-4-18,85.8,77.7,72.0,69.3,66.8,62.6,82,70,54,30.01,29.86,15,6,15,0.00
2012-4-19,89.4,78.5,70.5,72.0,69.1,67.1,91,74,55,29.91,29.80,15,4,15,0.00
2012-4-20,89.4,78.2,68.4,73.9,70.2,66.4,99,78,52,29.85,29.73,16,4,16,0.22
2012-4-21,75.7,72.1,68.5,72.9,69.8,64.8,99,93,83,29.83,29.57,15,4,15,0.77
2012-4-22,87.6,76.4,66.0,73.4,68.3,61.9,99,78,44,29.65,29.46,23,7,23,0.34
2012-4-23,86.4,73.2,62.6,64.8,56.3,46.0,88,59,31,29.83,29.63,20,6,20,0.00
2012-4-24,82.6,67.3,54.1,56.3,46.9,35.6,87,53,20,29.94,29.81,17,4,17,0.00
2012-4-25,82.4,69.8,55.6,59.4,54.1,46.2,88,60,31,30.03,29.93,12,4,14,0.00
2012-4-26,83.5,72.9,59.4,69.8,61.9,57.7,99,70,50,30.05,29.96,14,4,14,0.00
2012-4-27,88.0,75.3,64.4,73.0,67.8,62.2,97,79,53,30.02,29.94,14,4,14,0.02
2012-4-28,79.7,75.1,68.9,75.4,72.3,68.5,99,91,80,29.99,29.92,18,5,18,0.25
2012-4-29,75.9,72.8,65.1,73.2,71.6,63.9,99,96,83,29.97,29.88,21,8,21,1.50
2012-4-30,75.7,73.2,70.2,73.2,71.8,69.6,99,95,88,29.94,29.87,24,11,24,0.60
2012-5-1,82.6,77.9,74.8,73.6,72.0,70.0,88,82,73,29.97,29.88,23,12,23,0.06
2012-5-2,83.8,78.6,74.8,73.2,72.0,70.5,91,81,67,29.99,29.90,21,10,21,0.00
2012-5-3,85.1,78.9,73.6,73.6,71.5,70.0,90,78,65,30.00,29.92,19,9,19,0.00
2012-5-4,86.5,78.7,70.7,72.5,69.7,65.8,96,75,55,29.99,29.90,14,6,15,0.00
2012-5-5,88.9,79.9,70.9,73.8,70.6,49.8,94,74,55,29.93,29.82,12,4,12,0.00
2012-5-6,90.7,80.8,69.3,77.2,71.4,67.5,99,75,50,29.89,29.78,14,3,14,0.00
2012-5-7,95.4,80.2,68.9,76.6,71.4,64.9,99,77,40,29.85,23.49,15,3,15,0.04
2012-5-8,90.7,75.8,69.4,76.8,70.9,66.9,99,87,49,29.83,29.76,18,2,18,0.37
2012-5-9,92.1,79.4,69.4,78.6,72.2,69.1,99,81,51,29.81,29.69,14,3,14,0.02
2012-5-10,97.0,80.8,73.6,77.4,74.0,70.7,99,82,44,29.79,29.67,19,4,19,0.57
2012-5-11,89.1,79.9,70.0,81.0,74.1,69.6,99,83,60,29.98,29.75,17,5,17,0.11
2012-5-12,85.1,79.9,77.2,75.7,72.5,70.0,91,79,64,30.06,29.92,168,9,168,0.00
2012-5-13,85.8,79.5,-11.7,73.8,71.2,-14.1,89,76,65,30.02,29.90,19,7,19,0.00
2012-5-14,88.5,80.3,73.2,78.4,74.4,71.2,99,83,63,29.96,29.83,17,4,17,0.04
2012-5-15,91.2,79.0,69.4,83.3,74.9,68.2,99,88,62,29.92,29.83,17,2,17,0.80
2012-5-16,89.1,75.9,70.7,77.2,73.4,70.3,99,93,61,29.93,29.82,11,1,11,0.90
2012-5-17,86.4,76.9,68.4,77.2,73.3,68.0,99,89,68,29.88,29.75,14,2,14,0.66
2012-5-18,92.5,77.5,67.5,80.4,72.9,67.1,99,87,52,29.84,29.76,15,2,15,0.73
2012-5-19,91.6,76.4,71.1,79.7,73.3,70.7,99,91,56,29.87,29.77,16,2,16,0.25
2012-5-20,95.0,78.3,70.2,81.0,72.9,69.6,99,86,48,29.87,29.78,12,2,12,0.11
2012-5-21,95.7,80.3,70.2,82.8,73.3,69.8,99,81,47,29.88,29.81,15,3,15,0.09
2012-5-22,85.6,77.2,72.7,76.5,73.7,70.5,99,90,69,29.87,29.81,15,3,15,0.13
2012-5-23,88.7,78.6,73.4,77.5,74.4,71.8,99,88,62,29.83,29.73,17,4,17,0.53
2012-5-24,91.2,77.0,72.3,76.3,73.6,71.2,99,90,58,29.80,29.70,24,3,24,0.34
2012-5-25,92.5,81.2,70.3,81.7,74.0,70.0,99,81,53,29.92,29.77,16,3,16,0.00
2012-5-26,95.0,81.7,72.9,80.4,74.2,69.6,99,80,53,29.93,29.84,14,3,14,0.00
2012-5-27,96.8,79.9,69.8,81.9,74.0,66.9,99,85,41,29.87,29.75,23,2,23,1.33
2012-5-28,92.5,81.1,73.4,80.1,75.2,69.8,99,84,60,29.88,29.79,17,3,17,0.05
2012-5-29,93.0,81.5,74.3,81.0,76.0,72.1,99,85,53,29.88,29.78,17,3,17,0.61
2012-5-30,97.3,83.8,72.7,81.9,74.5,68.7,99,76,41,29.86,29.72,14,3,14,0.01
2012-5-31,92.3,80.3,75.7,77.7,75.6,71.6,99,87,55,29.86,29.77,15,2,15,0.09
2012-6-1,87.6,77.0,72.3,78.8,75.3,72.0,99,95,72,29.89,29.78,15,3,15,1.85
2012-6-2,95.5,84.0,75.2,81.1,75.7,70.9,99,78,52,29.88,29.78,14,4,14,0.05
2012-6-3,99.3,83.4,73.2,79.2,74.4,72.1,99,76,45,29.94,29.84,11,4,11,0.00
2012-6-4,95.7,85.7,75.7,80.6,75.1,69.4,99,73,48,29.91,29.77,17,4,17,0.00
2012-6-5,96.6,85.6,78.4,80.1,76.0,70.3,97,75,47,29.80,29.72,15,4,15,0.00
2012-6-6,91.0,83.9,79.2,80.1,76.6,68.7,95,80,57,29.87,29.77,16,3,16,0.00
2012-6-7,96.6,86.7,80.4,81.1,77.4,73.0,96,76,49,29.87,29.81,17,4,17,0.00
2012-6-8,97.3,83.7,75.4,79.2,76.8,73.0,99,81,51,29.88,29.77,18,3,18,0.02
2012-6-9,91.6,83.2,76.1,81.1,78.3,73.9,99,86,60,29.93,29.81,15,5,15,0.04
2012-6-10,90.1,84.3,77.0,87.1,78.3,75.9,99,83,66,30.01,29.88,17,6,17,0.00
2012-6-11,88.9,82.7,76.1,77.5,73.4,68.7,97,75,56,30.01,29.93,17,5,17,0.00
2012-6-12,91.6,82.2,72.3,75.9,70.2,65.8,91,69,48,29.98,29.86,15,4,15,0.00
2012-6-13,95.7,83.2,70.9,78.8,71.5,66.6,99,70,41,29.90,29.78,12,3,13,0.00
2012-6-14,101.7,84.7,70.7,79.7,74.8,68.0,99,75,36,29.92,29.78,21,4,21,0.73
2012-6-15,96.1,80.9,71.6,79.9,74.4,67.3,99,83,49,29.93,29.82,14,3,14,0.73
2012-6-16,91.6,82.0,73.4,79.3,73.0,69.4,99,76,54,29.92,29.82,21,4,21,0.04
2012-6-17,89.8,80.9,70.7,74.5,69.2,65.1,96,69,47,29.93,29.82,18,5,18,0.01
2012-6-18,88.3,81.7,75.6,72.1,68.8,64.8,79,66,49,29.92,29.83,20,7,20,0.00
2012-6-19,86.4,81.7,76.3,76.8,73.2,69.8,99,76,66,29.93,29.85,23,9,23,0.14
2012-6-20,85.5,78.1,74.3,78.6,75.7,73.8,99,93,74,29.91,29.82,15,4,17,0.85
2012-6-21,88.9,81.7,77.5,77.7,76.0,73.0,92,83,67,29.89,29.77,17,7,17,0.00
2012-6-22,86.2,78.4,73.4,79.5,76.2,73.0,99,93,76,29.86,29.73,15,3,15,0.30
2012-6-23,87.4,78.6,72.1,80.4,76.1,71.8,99,93,73,29.90,29.75,17,5,17,0.32
2012-6-24,85.8,80.3,74.1,81.9,78.5,73.8,99,94,85,29.88,29.75,17,5,17,0.90
2012-6-25,93.0,84.9,81.7,79.7,77.6,74.1,91,80,58,29.76,29.65,19,8,19,0.00
2012-6-26,93.0,85.1,77.9,79.2,76.3,73.6,98,76,56,29.69,29.62,25,10,25,0.08
2012-6-27,94.8,85.4,79.2,80.2,77.9,74.7,96,80,55,29.89,29.67,22,8,22,0.17
2012-6-28,97.2,84.3,73.2,78.8,75.6,71.8,96,77,49,29.97,29.88,12,3,12,0.00
2012-6-29,94.1,84.4,75.7,79.5,75.8,72.3,98,77,57,29.95,29.83,11,4,11,0.00
2012-6-30,97.3,86.1,77.0,78.1,75.4,72.0,93,72,49,29.92,29.82,11,3,11,0.00
2012-7-1,96.8,85.8,77.2,81.9,76.3,72.9,99,75,50,29.98,29.88,12,2,12,0.06
2012-7-2,95.7,85.6,76.6,85.8,76.1,69.4,99,76,47,30.02,29.88,15,3,15,0.00
2012-7-3,95.9,84.9,75.0,81.9,76.4,73.0,99,78,54,29.97,29.88,15,4,15,0.00
2012-7-4,92.8,84.8,77.9,83.7,76.6,71.4,99,78,59,29.98,29.90,13,4,13,0.00
2012-7-5,93.6,83.4,74.7,81.9,75.7,73.0,99,79,54,29.96,29.87,17,4,17,0.04
2012-7-6,93.9,84.9,75.2,81.1,76.3,72.9,94,77,58,29.95,29.88,15,5,15,0.00
2012-7-7,95.2,85.3,76.5,80.1,76.3,72.1,92,76,58,29.98,29.91,17,5,17,0.00
2012-7-8,95.2,83.7,77.0,82.4,77.1,75.0,99,82,57,29.98,29.90,14,2,14,0.00
2012-7-9,93.4,83.0,75.9,84.0,77.1,74.3,99,83,63,29.96,29.86,15,4,15,0.02
2012-7-10,91.2,82.7,75.9,87.1,77.0,72.9,99,84,62,29.94,29.83,21,4,21,0.13
2012-7-11,93.6,80.0,73.4,78.1,75.1,72.7,99,86,53,29.97,29.84,13,3,13,0.44
2012-7-12,93.9,81.5,72.9,80.4,75.7,72.3,99,84,58,29.97,29.86,16,2,16,1.51
2012-7-13,91.4,81.6,73.0,81.9,75.8,72.7,99,84,65,29.95,29.87,16,5,16,0.24
2012-7-14,88.9,82.8,76.8,78.8,75.7,73.0,96,80,63,29.98,29.87,23,7,23,0.07
2012-7-15,88.7,78.4,72.5,79.3,75.2,72.1,99,91,66,30.02,29.93,15,3,15,1.06
2012-7-16,90.9,77.7,72.5,83.8,75.5,72.1,99,94,67,30.01,29.88,13,2,13,0.89
2012-7-17,92.7,78.6,72.9,84.6,75.5,71.2,99,91,64,29.95,29.87,22,2,22,0.44
2012-7-18,95.7,83.6,72.7,81.5,76.6,72.3,99,82,52,30.04,29.89,15,2,15,0.01
2012-7-19,92.1,84.8,77.2,83.7,77.7,73.9,99,81,58,30.08,29.98,14,4,14,0.00
2012-7-20,91.6,85.2,78.4,80.6,78.2,74.7,98,80,61,30.04,29.93,16,6,16,0.00
2012-7-21,92.3,85.9,81.7,80.4,79.2,77.5,93,81,64,30.00,29.91,17,7,17,0.00
2012-7-22,88.0,80.5,73.0,81.1,77.2,72.7,99,90,76,30.06,29.92,27,5,27,0.65
2012-7-23,91.4,81.9,75.0,80.6,77.8,73.9,99,88,67,30.07,29.99,15,4,15,0.11
2012-7-24,95.2,86.4,81.5,82.2,79.9,75.9,99,82,61,30.04,29.91,13,4,13,0.00
2012-7-25,99.5,86.2,77.7,80.4,76.8,72.5,99,76,44,29.96,29.88,13,3,13,0.00
2012-7-26,96.4,86.3,76.5,83.3,76.9,73.2,99,76,51,29.96,29.89,15,3,15,0.00
2012-7-27,98.2,85.8,77.0,83.5,77.1,73.0,99,77,49,30.00,29.90,16,4,16,0.00
2012-7-28,93.9,83.9,73.4,87.3,77.0,71.4,99,81,60,30.04,29.93,21,3,21,0.52
2012-7-29,96.3,85.2,75.2,85.6,76.0,72.1,99,76,55,29.99,29.90,13,4,13,0.00
2012-7-30,95.4,83.7,75.9,81.7,75.5,70.0,99,78,53,29.97,29.88,15,2,15,0.22
2012-7-31,97.3,84.8,74.1,81.7,75.5,72.0,99,76,47,29.95,29.86,14,2,14,0.00
2012-8-1,98.4,85.9,76.5,82.6,76.6,70.3,99,76,43,29.92,29.83,14,3,14,0.00
2012-8-2,100.0,86.5,77.4,86.7,78.2,73.6,99,78,48,29.90,29.81,15,3,15,0.00
2012-8-3,96.8,81.0,72.3,84.2,77.8,72.0,99,91,57,29.94,29.81,15,2,15,0.78
2012-8-4,96.4,83.7,75.9,86.2,77.2,72.0,99,83,56,29.95,29.84,18,3,18,0.01
2012-8-5,92.1,85.1,79.7,81.7,78.2,74.5,94,81,62,29.98,29.90,18,6,18,0.07
2012-8-6,88.9,82.3,77.0,81.5,78.5,75.2,99,89,73,29.96,29.88,17,4,17,0.30
2012-8-7,95.0,85.7,77.9,81.0,77.5,73.4,98,78,52,29.94,29.86,17,5,17,0.00
2012-8-8,93.2,85.9,79.7,82.4,78.1,74.1,96,79,58,29.94,29.86,15,5,15,0.00
2012-8-9,93.0,86.2,81.3,81.1,77.8,75.0,91,77,60,29.94,29.81,16,6,16,0.00
2012-8-10,89.4,81.7,76.8,80.1,76.5,74.5,99,85,66,29.91,29.82,18,4,18,0.40
2012-8-11,94.1,80.5,74.7,82.2,76.4,73.2,99,89,58,29.96,29.83,14,2,14,0.13
2012-8-12,94.8,81.7,75.0,84.7,77.7,74.1,99,89,55,29.96,29.88,15,1,15,0.65
2012-8-13,95.2,84.0,75.9,90.7,78.8,75.6,99,85,63,29.97,29.88,12,3,12,0.00
2012-8-14,97.3,86.3,78.6,86.7,78.3,73.2,99,79,49,29.95,29.84,12,3,12,0.04
2012-8-15,97.5,86.4,78.1,84.0,78.3,75.7,99,78,53,29.95,29.87,11,3,11,0.00
2012-8-16,98.1,83.7,77.5,85.6,78.7,71.8,99,86,55,29.98,29.89,19,2,19,0.19
2012-8-17,99.1,84.1,75.2,85.1,77.0,70.2,99,82,42,29.95,29.82,13,2,13,0.05
2012-8-18,97.9,82.2,74.5,82.2,77.3,74.1,99,87,50,29.90,29.81,13,2,13,1.43
2012-8-19,97.7,86.2,76.6,83.3,77.7,74.1,99,78,48,29.91,29.81,12,3,12,0.00
2012-8-20,99.5,86.7,78.3,81.5,77.4,74.1,99,76,49,29.92,29.80,14,3,14,0.00
2012-8-21,96.4,85.6,75.0,79.2,76.4,73.0,98,76,53,29.99,29.88,17,3,17,0.06
2012-8-22,95.9,83.6,75.2,80.8,75.7,69.4,96,78,51,30.00,29.91,20,3,20,0.00
2012-8-23,93.9,84.4,75.4,81.9,75.8,72.5,99,77,54,29.99,29.89,15,4,15,0.00
2012-8-24,94.1,84.0,73.0,79.3,76.1,28.8,99,78,58,29.91,29.79,34,5,34,0.30
2012-8-25,85.8,78.3,72.9,81.5,76.3,72.5,99,94,83,29.87,29.75,18,3,18,0.57
2012-8-26,84.2,80.0,75.9,80.4,78.3,75.6,99,95,82,29.77,29.56,33,12,33,2.78
2012-8-27,86.4,80.8,75.0,81.9,79.4,74.7,99,96,85,29.85,29.61,30,9,30,3.26
2012-8-28,96.1,84.9,79.5,82.9,79.3,76.6,99,84,59,29.91,29.81,17,4,17,0.00
2012-8-29,96.6,86.0,80.1,80.4,78.2,75.2,96,79,53,29.90,29.81,15,4,15,0.00
2012-8-30,91.6,84.0,76.5,82.6,77.4,73.9,99,82,61,30.00,29.86,15,4,15,0.00
2012-8-31,92.8,84.3,78.1,81.3,77.0,71.6,99,81,52,30.04,29.96,11,3,11,0.01
2012-9-1,94.1,84.7,77.5,84.0,77.8,74.5,99,81,57,30.01,29.91,17,3,17,0.00
2012-9-2,91.8,82.8,76.6,78.8,76.2,73.9,99,82,59,29.95,29.86,17,3,17,0.01
2012-9-3,94.5,82.3,74.3,79.9,75.5,73.4,99,81,54,29.95,29.86,15,4,15,0.00
2012-9-4,93.6,82.2,74.7,81.1,75.6,71.6,99,82,54,29.94,29.83,14,2,14,0.04
2012-9-5,94.6,78.4,70.0,79.3,74.8,69.4,99,90,57,29.92,29.82,19,2,19,0.80
2012-9-6,94.8,79.7,72.3,87.3,75.8,68.5,99,89,56,29.95,29.85,17,2,17,0.37
2012-9-7,95.0,81.0,73.6,86.0,75.8,70.7,99,86,54,29.91,29.80,14,2,14,0.25
2012-9-8,99.0,84.7,74.5,85.3,75.6,68.9,99,77,40,29.88,29.77,12,2,12,0.04
2012-9-9,98.4,86.6,77.7,78.4,75.5,70.7,94,72,42,29.88,29.78,14,4,14,0.00
2012-9-10,95.9,85.0,79.0,81.9,78.0,73.2,99,81,51,29.90,29.83,15,3,15,0.00
2012-9-11,96.6,83.4,76.3,82.0,78.1,75.7,99,86,57,29.95,29.87,16,3,16,0.07
2012-9-12,91.4,83.9,75.7,79.3,76.0,72.9,99,78,58,29.96,29.86,21,6,21,0.19
2012-9-13,84.4,79.4,74.1,80.4,76.5,73.8,99,91,82,29.97,29.85,21,4,21,1.19
2012-9-14,92.8,81.2,73.9,83.1,76.0,73.6,99,85,64,29.92,29.84,18,4,18,0.02
2012-9-15,90.0,81.9,74.5,80.4,76.4,73.6,99,85,67,29.94,29.85,17,5,17,0.01
2012-9-16,89.1,80.5,73.8,79.7,76.1,73.0,99,87,63,29.95,29.84,14,3,14,0.26
2012-9-17,90.0,80.0,72.7,79.7,76.0,72.3,99,88,69,29.92,29.80,16,4,16,0.19
2012-9-18,96.3,84.4,75.4,80.8,76.8,74.3,99,80,52,29.89,29.78,14,3,14,0.04
2012-9-19,98.4,83.2,75.0,82.2,76.9,73.4,99,83,46,29.94,29.82,11,2,11,0.05
2012-9-20,95.0,83.6,75.2,81.9,77.2,74.8,99,83,60,29.93,29.81,14,3,14,0.00
2012-9-21,90.0,78.8,72.9,79.3,76.1,72.3,99,92,67,29.88,29.79,20,2,20,0.25
2012-9-22,91.8,76.6,73.0,81.1,75.3,72.7,99,96,64,29.92,29.81,13,1,13,1.43
2012-9-23,88.7,78.6,73.6,82.9,76.6,73.2,99,94,75,29.95,29.87,11,1,11,0.05
2012-9-24,95.0,80.2,74.5,81.3,75.7,72.9,99,87,52,29.95,29.86,13,2,13,0.04
2012-9-25,91.2,80.0,73.9,79.2,74.7,72.1,99,85,58,29.97,29.87,15,2,15,0.01
2012-9-26,90.7,80.6,75.4,80.8,77.0,74.1,99,89,68,29.97,29.89,12,2,12,0.00
2012-9-27,97.0,82.8,75.9,82.4,77.2,75.6,99,85,53,29.97,29.87,12,2,12,0.00
2012-9-28,95.2,81.4,74.8,83.5,76.5,74.3,99,86,60,29.92,29.81,11,2,11,0.00
2012-9-29,93.9,82.5,74.5,84.6,76.5,74.1,99,84,60,29.87,29.73,12,3,12,0.06
2012-9-30,93.4,83.3,74.1,83.3,76.2,72.7,99,81,54,29.80,29.68,15,3,15,0.00
2012-10-1,88.3,79.7,75.2,81.3,77.0,74.5,99,92,73,29.78,29.66,14,3,14,2.28
2012-10-2,92.8,79.4,73.8,82.4,76.4,73.4,99,92,64,29.96,29.75,17,3,17,0.96
2012-10-3,93.2,83.0,75.2,84.2,78.4,74.8,99,87,63,30.06,29.92,16,4,16,0.04
2012-10-4,90.9,84.3,79.7,81.5,79.4,76.8,99,86,68,30.05,29.94,14,5,14,0.02
2012-10-5,90.9,83.9,77.5,81.9,77.9,74.3,99,83,62,29.98,29.81,12,4,12,0.01
2012-10-6,96.3,82.9,76.3,84.7,77.0,73.9,99,84,55,29.87,29.74,11,2,11,0.02
2012-10-7,92.3,79.7,73.8,82.0,76.6,73.4,99,91,65,29.87,29.75,14,2,14,0.06
2012-10-8,90.9,79.9,72.7,82.6,77.0,72.3,99,92,63,29.91,29.79,14,2,14,0.39
2012-10-9,96.6,83.0,75.6,83.7,77.3,74.3,99,84,52,29.91,29.83,10,2,10,0.00
2012-10-10,93.0,82.3,75.0,81.1,76.5,73.0,99,84,61,29.95,29.86,13,2,13,0.07
2012-10-11,91.8,80.9,72.3,74.7,71.1,67.3,99,75,46,30.00,29.91,17,3,17,0.00
2012-10-12,90.5,80.5,71.4,73.6,68.0,64.6,95,68,45,30.00,29.92,17,3,17,0.00
2012-10-13,88.0,78.3,71.4,77.5,70.3,67.1,99,78,53,30.00,29.90,23,6,23,0.18
2012-10-14,86.7,80.8,77.0,79.3,75.4,66.9,99,84,66,29.95,29.81,22,7,22,0.13
2012-10-15,92.5,82.4,75.2,81.9,75.8,73.0,99,82,56,29.83,29.67,14,3,14,0.01
2012-10-16,95.0,80.7,72.9,78.3,73.5,69.1,99,81,50,29.74,29.65,11,2,11,0.00
2012-10-17,91.6,78.9,71.2,80.8,74.3,70.0,99,87,59,29.78,29.68,12,2,12,0.12
2012-10-18,96.6,81.6,72.7,81.5,76.0,72.3,99,85,50,29.78,29.69,12,2,12,0.07
2012-10-19,92.5,80.6,75.0,84.2,76.8,73.0,99,89,60,29.78,29.69,13,2,13,0.12
2012-10-20,95.5,81.3,74.3,81.0,74.5,69.1,99,82,47,29.82,29.72,11,2,11,0.01
2012-10-21,91.2,79.9,71.6,74.1,68.1,63.1,99,70,43,29.89,29.78,15,3,15,0.00
2012-10-22,88.0,77.8,66.4,74.5,67.7,64.0,99,73,51,29.91,29.83,20,5,20,0.00
2012-10-23,88.3,80.4,74.7,73.4,69.8,65.5,83,70,58,29.87,29.79,22,7,22,0.00
2012-10-24,87.8,80.0,73.9,76.3,73.5,68.9,99,82,58,29.85,29.72,26,7,26,0.09
2012-10-25,84.2,77.0,71.4,76.8,73.5,67.3,99,89,73,29.73,29.51,24,6,24,0.53
2012-10-26,83.1,74.5,70.3,75.2,71.2,68.4,99,90,69,29.52,29.36,24,9,24,0.37
2012-10-27,88.0,76.8,69.6,69.8,65.1,60.1,90,69,42,29.58,29.38,25,8,25,0.00
2012-10-28,85.5,74.9,68.5,69.8,64.5,58.1,99,72,46,29.68,29.56,20,6,20,0.00
2012-10-29,79.5,67.4,59.9,59.4,51.6,41.4,81,59,30,29.76,29.62,21,6,21,0.00
2012-10-30,79.5,64.7,54.3,54.1,49.5,44.4,91,60,35,29.90,29.72,17,4,17,0.00
2012-10-31,81.3,66.4,54.7,63.9,56.2,52.7,99,73,41,29.96,29.84,11,2,11,0.00
2012-11-1,86.7,70.3,57.2,65.7,61.1,56.8,99,75,42,29.97,29.82,12,2,12,0.00
2012-11-2,87.4,71.9,60.3,73.9,60.5,47.8,99,73,29,29.99,29.87,12,2,12,0.00
2012-11-3,92.1,70.4,57.6,63.0,57.0,40.1,99,70,18,30.03,29.92,11,2,11,0.00
2012-11-4,84.6,72.3,61.9,71.2,64.5,61.3,99,79,49,30.01,29.88,12,2,12,0.00
2012-11-5,86.2,72.4,64.6,68.5,63.0,57.0,99,75,45,29.92,29.81,9,1,9,0.00
2012-11-6,87.1,73.8,63.9,72.1,63.9,52.9,99,75,36,29.84,29.68,15,3,15,0.00
2012-11-7,77.9,68.7,60.3,68.2,58.5,51.1,97,71,49,29.88,29.72,17,5,17,0.00
2012-11-8,73.6,62.4,53.6,52.9,47.3,38.7,95,62,32,30.01,29.86,18,4,18,0.00
2012-11-9,80.6,68.2,55.6,60.4,54.4,51.1,92,64,38,30.10,29.99,18,4,18,0.00
2012-11-10,80.6,72.9,67.8,60.4,56.9,54.0,66,58,43,30.14,30.05,18,5,18,0.00
2012-11-11,81.9,76.2,70.3,68.5,61.7,55.6,92,62,45,30.12,30.04,22,9,22,0.01
2012-11-12,83.8,75.6,68.7,72.0,69.1,65.1,99,81,61,30.09,29.99,22,7,22,0.14
2012-11-13,84.6,75.1,66.0,77.4,68.1,63.7,99,80,52,30.03,29.93,15,3,15,0.04
2012-11-14,84.0,73.1,65.1,73.8,67.6,64.6,99,84,60,30.01,29.93,14,3,14,0.01
2012-11-15,87.8,74.0,63.5,73.2,66.3,63.1,99,80,49,29.98,29.91,10,2,10,0.00
2012-11-16,84.4,71.2,64.9,70.0,67.3,64.4,99,88,61,30.00,29.90,14,3,14,0.92
2012-11-17,85.8,72.0,64.8,75.7,66.9,64.4,99,86,52,29.99,29.90,12,3,12,0.93
2012-11-18,85.5,73.1,67.1,72.0,67.9,65.3,99,85,52,30.00,29.90,14,4,14,0.00
2012-11-19,78.8,67.5,60.8,66.9,61.6,59.0,99,83,57,30.02,29.89,12,5,12,0.00
2012-11-20,78.3,65.5,59.9,67.5,62.7,59.5,99,91,68,29.94,29.81,16,4,16,0.00
2012-11-21,79.5,67.7,59.2,65.7,59.1,52.9,99,76,42,29.93,29.81,16,6,16,0.00
2012-11-22,79.7,65.5,56.5,58.8,52.9,47.8,88,66,38,30.01,29.89,18,7,18,0.00
2012-11-23,83.5,65.8,54.5,60.8,55.2,50.9,92,71,42,30.04,29.93,13,4,13,0.00
2012-11-24,80.8,64.9,54.1,58.8,54.1,48.9,98,72,34,30.02,29.89,15,3,15,0.00
2012-11-25,88.3,66.1,53.2,59.7,56.2,50.2,99,76,28,30.04,29.94,8,2,8,0.00
2012-11-26,85.8,70.0,56.8,67.8,61.7,56.1,99,77,52,30.09,30.00,13,2,13,0.00
2012-11-27,83.5,71.2,61.5,72.7,66.1,61.2,99,85,61,30.08,29.96,14,2,14,0.00
2012-11-28,84.0,72.0,64.2,70.7,65.8,61.9,99,83,50,30.07,29.98,11,2,11,0.00
2012-11-29,81.3,70.5,60.6,69.8,64.7,60.1,99,83,61,30.10,30.03,20,6,20,0.05
2012-11-30,79.2,73.0,67.5,68.2,63.6,60.3,99,73,58,30.11,30.01,23,7,23,0.05
2012-12-1,82.2,74.8,70.3,66.9,64.8,62.4,88,72,54,30.08,29.99,18,5,18,0.05
2012-12-2,81.3,75.1,71.1,69.3,66.2,63.7,88,74,60,30.11,30.02,20,7,20,0.02
2012-12-3,83.3,72.8,64.2,70.3,63.2,55.4,97,73,44,30.13,30.03,18,4,18,0.09
2012-12-4,81.7,72.9,67.1,68.2,63.2,57.9,96,72,48,30.12,30.03,15,4,15,0.01
2012-12-5,81.5,71.8,64.2,71.2,65.6,62.6,99,82,58,30.04,29.88,14,3,14,0.04
2012-12-6,84.2,72.7,65.5,76.5,67.7,65.1,99,86,60,29.91,29.78,11,2,11,0.02
2012-12-7,86.4,74.9,66.2,76.8,69.8,65.8,99,85,61,29.87,29.78,13,3,13,0.02
2012-12-8,82.2,74.5,66.6,76.3,71.7,66.2,99,91,75,29.92,29.83,15,4,15,0.00
2012-12-9,88.7,77.2,69.3,80.1,74.2,68.9,99,91,69,29.98,29.87,8,1,8,0.00
2012-12-10,87.3,78.2,71.2,80.6,75.3,70.9,99,91,72,29.92,29.80,13,3,13,0.00
2012-12-11,89.8,78.8,69.8,81.0,75.9,69.4,99,92,68,29.94,29.81,13,3,13,0.56
2012-12-12,85.8,78.0,72.3,76.8,74.2,71.8,99,89,69,29.99,29.89,17,3,17,0.00
2012-12-13,84.2,72.5,64.0,77.9,70.5,63.7,99,94,78,29.99,29.90,15,3,15,0.00
2012-12-14,82.6,69.9,62.4,71.6,66.0,61.2,99,88,53,30.02,29.93,11,3,11,0.01
2012-12-15,80.8,72.3,64.6,71.8,67.0,64.2,99,84,69,29.99,29.90,19,4,19,0.01
2012-12-16,85.5,74.5,65.5,77.2,68.9,65.1,99,84,60,29.94,29.82,12,3,12,0.00
2012-12-17,87.3,73.8,63.7,73.6,68.2,63.3,99,85,53,29.87,29.77,11,2,11,0.00
2012-12-18,90.3,75.9,67.1,76.3,69.2,66.7,99,82,49,29.91,29.80,14,2,14,0.00
2012-12-19,87.8,73.4,60.4,69.4,65.3,60.1,99,79,44,29.98,29.89,10,2,10,0.00
2012-12-20,86.2,73.1,62.6,73.0,66.4,62.1,99,82,46,29.98,29.85,11,2,11,0.00
2012-12-21,71.8,65.3,51.6,71.4,53.0,37.4,99,68,32,30.06,29.84,21,7,21,0.01
2012-12-22,70.3,54.9,45.9,44.2,35.6,23.7,79,53,18,30.16,30.05,13,4,13,0.00
2012-12-23,77.4,60.3,45.9,57.0,48.1,36.5,98,66,44,30.15,30.02,14,2,14,0.00
2012-12-24,80.8,66.4,55.2,62.6,58.7,54.7,99,79,51,30.04,29.88,15,2,15,0.00
2012-12-25,84.0,69.6,57.9,68.7,62.8,57.6,99,81,55,29.94,29.81,15,3,15,0.00
2012-12-26,86.2,75.1,63.9,75.0,69.8,62.6,99,85,61,29.87,29.73,20,5,20,0.01
2012-12-27,82.8,63.2,52.2,62.8,52.4,44.1,98,73,30,29.96,29.87,11,2,11,0.02
2012-12-28,79.7,68.4,51.6,72.9,65.2,49.1,99,90,74,29.97,29.85,13,2,13,0.00
2012-12-29,86.0,75.3,62.8,77.2,71.9,57.6,99,90,70,30.00,29.81,15,5,15,0.02
2012-12-30,72.1,62.0,50.7,58.3,54.1,46.6,95,76,58,30.17,29.99,17,5,17,0.00
2012-12-31,76.6,70.7,65.8,62.2,59.5,56.5,76,68,58,30.19,30.07,18,8,18,0.00
2013-1-1,83.8,73.5,64.4,65.3,62.6,58.8,97,69,52,30.08,29.93,17,4,17,0.00